Regional Weather Roundup
Issued by NWS

Home | Current Version | Previous Version | Text Only | Print | Product List | Glossary Off
Versions: 1 2 3 4 5 6 7 8 9 10 11 12 13 14 15 16 17 18 19 20 21 22 23 24 25 26 27 28 29 30 31 32 33 34 35 36 37 38 39 40 41 42 43 44 45 46 47 48 49 50

000
ASUS43 KLMK 261102
RWRKY
KENTUCKY REGIONAL WEATHER ROUNDUP
NATIONAL WEATHER SERVICE LOUISVILLE KY
700 AM EDT SUN MAR 26 2017

NOTE "FAIR" INDICATES FEW OR NO CLOUDS BELOW 12,000 FEET
WITH NO SIGNIFICANT WEATHER AND/OR OBSTRUCTIONS TO VISIBILITY.

KYZ001>023-026-027-061>063-070>075-261200-
WESTERN AND SOUTH CENTRAL KENTUCKY

CITY           SKY/WX    TMP DP  RH WIND       PRES   REMARKS
PADUCAH        CLOUDY    57  54  89 VRB5      29.90R
HENDERSON      CLOUDY    57  52  82 S8        29.90R
OWENSBORO      LGT RAIN  57  55  93 S7        29.93R FOG
HOPKINSVILLE   DRIZZLE   58  57  95 S5        29.93S
BOWLING GREEN  CLOUDY    59  56  89 S7        29.96R
GLASGOW        NOT AVBL
$$

KYZ024-025-028>034-038-045-046-053-261200-
NORTH CENTRAL KENTUCKY

CITY           SKY/WX    TMP DP  RH WIND       PRES   REMARKS
LOUISVILLE/SDF CLOUDY    58  55  90 S9        29.96S
LOUISVILLE/LOU CLOUDY    58  55  90 SE5       29.96S
FORT KNOX      LGT RAIN  57  57 100 SE10      29.95R
$$

KYZ035>037-039>044-047>052-055>060-089>105-261200-
NORTHEAST KENTUCKY

CITY           SKY/WX    TMP DP  RH WIND       PRES   REMARKS
LEXINGTON      LGT RAIN  56  54  93 S8        30.00S
COVINGTON      LGT RAIN  57  56  96 S7        29.98S
FRANKFORT      CLOUDY    57  53  86 S7        29.98S
$$

KYZ054-064>069-076>088-106>120-261200-
SOUTHEAST KENTUCKY

CITY           SKY/WX    TMP DP  RH WIND       PRES   REMARKS
JACKSON        LGT RAIN  59  49  69 SW6       30.04R
LONDON         LGT RAIN  55  53  93 CALM      30.03R
SOMERSET       NOT AVBL
MIDDLESBORO    LGT RAIN  55  55 100 NE3       30.07S
MONTICELLO     CLOUDY    58  56  93 NE8       30.03S
$$




USA.gov is the U.S. government's official web portal to all federal, state and local government web resources and services.